{"data":{"norad_id":61781,"intl_designator":"2024-199AY","name":"ASRTU-1 (AO-123)","alt_names":[],"object_type":"PAYLOAD","status":"ACTIVE","operator":null,"country":"PRC","launch_date":"2024-11-04","launch_site_code":"VOSTO","launch_vehicle":null,"mission":null,"orbit_class":"UNKNOWN","rcs_meters":null,"size_class":null,"mass_kg":null,"dimensions":null,"purposes":["comms"],"wikipedia_slug":null,"has_3d_model":false,"image_url":null,"decayed_at":null,"tle_current":{"epoch":"2026-05-25T03:51:31.341024Z","epoch_age_seconds":64465,"freshness":"FRESH","line1":"1 61781U 24199AY  26145.16077941  .00007451  00000+0  21901-3 0  9993","line2":"2 61781  97.3036  14.0416 0014962  38.0188 322.2108 15.35287987130398","mean_motion":15.35287987,"eccentricity":0.0014962,"inclination_deg":97.3036,"raan_deg":14.0416,"arg_perigee_deg":38.0188,"mean_anomaly_deg":322.2108,"bstar":0.00021901,"rev_number":13039,"period_min":93.79347797893,"perigee_km":449.83390971809,"apogee_km":470.29654606483,"semimajor_km":6838.2022278915,"source":"CELESTRAK","updated_at":"2026-05-25T13:38:23.295921Z"}}}